Regional Weather Roundup
Issued by NWS Charleston, SC

Current Version | Previous Version | Graphics & Text | Print | Product List | Glossary On
Versions: 1 2 3 4 5 6 7 8 9 10 11 12 13 14 15 16 17 18 19 20 21 22 23 24 25 26 27 28 29 30 31 32 33 34 35 36 37 38 39 40 41 42 43 44 45 46 47 48 49 50
000
ASUS42 KCHS 310412
RWRCHS

REGIONAL WEATHER ROUNDUP
NATIONAL WEATHER SERVICE CHARLESTON SC
1200 AM EDT MON AUG 31 2015

NOTE: "FAIR" INDICATES FEW OR NO CLOUDS BELOW 12,000 FEET WITH NO
SIGNIFICANT WEATHER AND/OR OBSTRUCTIONS TO VISIBILITY.

NOT ALL STATIONS ARE QUALITY CONTROLLED BY THE NATIONAL
WEATHER SERVICE. USE DATA WITH CAUTION...ESPECIALLY
DEWPOINT OBSERVATIONS.

SCZ027-030-031-034>040-042>050-310500-
...SOUTHEAST SOUTH CAROLINA...

CITY           SKY/WX    TMP DP  RH WIND       PRES   REMARKS
N CHARLESTON   CLOUDY    77  73  87 SE8       30.06F
WATERFRONT PRK   N/A     80  76  87 SE16      30.03F
MOUNT PLEASANT LGT RAIN  79  73  83 SE6       30.07S
JOHNS ISLAND   MOCLDY    79  75  89 SE10G16   30.07S
PINOPOLIS        N/A     75  73  94 E7        29.99F
MONCKS CORNER  FAIR      73  72  94 CALM      30.08S
SUMMERVILLE    MOCLDY    73  73 100 CALM      30.08F
BEAUFORT MCAS  RAIN      78  75  90 S5        30.04F
BEAUFORT ARPT  MOCLDY    77  75  94 SE3       30.04F
HILTON HEAD IS CLOUDY    79  75  89 CALM      30.05F
WALTERBORO     RAIN      75  73  94 NE7       30.07S
ALLENDALE      CLOUDY    73  72  94 N7        30.06S

...SOUTHERN MIDLANDS AND PEE DEE...

CITY           SKY/WX    TMP DP  RH WIND       PRES   REMARKS
GEORGETOWN     NOT AVBL
KINGSTREE      NOT AVBL
ORANGEBURG     LGT RAIN  73  71  93 NE7       30.09F
BARNWELL       DRIZZLE   72  72 100 N7        30.09F
AIKEN          MOCLDY    66  64  94 E7        30.12F
MANNING        CLOUDY    70  70 100 CALM      30.09F
COLUMBIA       LGT RAIN  72  69  90 SE14      30.08F FOG
SUMTER         CLOUDY    72  70  95 NE6       30.08F
FLORENCE       CLOUDY    71  69  93 NE5       30.10F
MYRTLE BEACH   CLOUDY    79  72  78 SE14      30.12S
N MYRTLE BEACH CLOUDY    79  74  84 SE8       30.09F

$$

GAZ063-065-086>088-099>101-113>116-118-119-134>141-150-310500-
...SOUTHEAST GEORGIA...

CITY           SKY/WX    TMP DP  RH WIND       PRES   REMARKS
SAVANNAH ARPT  CLOUDY    75  73  93 CALM      30.04F
HUNTER AAF     CLOUDY    76  76 100 N1        30.01F
FORT STEWART   CLOUDY    75  74  95 CALM      30.02F
STATESBORO     CLOUDY    74  32  21 N5        30.06S
SYLVANIA       DRIZZLE   75  75 100 CALM      30.07S
CLAXTON        NOT AVBL

...CSRA...CENTRAL AND FAR SOUTHEAST GEORGIA...

CITY           SKY/WX    TMP DP  RH WIND       PRES   REMARKS
THOMSON        PTCLDY    70  70 100 CALM      30.14S
AUGUSTA-BUSH   PTCLDY    69  68  96 CALM      30.08F
AUGUSTA-DANIEL PTCLDY    73  67  81 CALM      30.10S
SWAINSBORO     CLOUDY   N/A N/A N/A E3        30.08S
VIDALIA        CLOUDY    73  72  94 NE5       30.07S
EASTMAN        CLOUDY    75  75 100 E5        30.08F
HAZLEHURST     CLOUDY    77  77 100 N5        30.05S
ALMA           CLOUDY    76  74  93 CALM      30.04F
WAYCROSS       CLOUDY    80  79  98 CALM      30.03S
JESUP          CLOUDY    79  77  94 CALM      30.04S
BAXLEY         CLOUDY    77  75  94 NE3       30.04F
BRUNSWICK      CLOUDY    73  73 100 CALM      30.03R
SAINT SIMONS   CLOUDY    79  75  87 SE6       30.02S

$$

SCZ027-028-034-036>038-045-046-048>050-GAZ119-141-310500-
...LAKE AND SUPPLEMENTAL COASTAL OBSERVATIONS...

STATION/POSITION TIME  TEMP    WIND        PRES    WAVE   SWELL
                       AIR SEA DIR/SP/G            HT/PER HT/PER/DIR
                 (UTC) (F)     (DEG/KT/KT) (MB)    (FT/S) (FT/S/D)
UPR LAKE MARION  NOT AVBL
WINYAH BAY       NOT AVBL
LAKE MURRAY      0300   70      40/  2/  4 1019.0F
ACE BASIN NERRS  NOT AVBL
FORT PULASKI     NOT AVBL
SAPELO ISLAND    0300   81     170/ 11     1017.0S

$$

ANZ835-935-AMZ111-154-330-350-352-354-370-450-454-472-310500-
...C-MAN AND BUOY OBSERVATIONS...

STATION/POSITION TIME  TEMP    WIND        PRES    WAVE   SWELL
                       AIR SEA DIR/SP/G            HT/PER HT/PER/DIR
                 (UTC) (F)     (DEG/KT/KT) (MB)    (FT/S) (FT/S/D)
BUOY 41004       0350   80 84  110/ 14/ 17 1017.5F   5/11   3/11
BUOY 41008       0350   81 84  140/ 10/ 12 1017.0R   5/10   3/130/10
FOLLY BEACH CMAN 0300   80     120/ 18/ 22 1018.4F
CAPERS NEARSHORE 0308   80     140/ 17/ 21 1018.7F
FRIPP NEARSHORE  0300   80     160/ 19/ 25 1017.0F


STATION/POSITION TIME  TEMP    WIND        PRES    WAVE   SWELL
                       AIR SEA DIR/SP/G            HT/PER HT/PER/DIR
                 (UTC) (F)     (DEG/KT/KT) (MB)    (FT/S) (FT/S/D)
5E ST. MARYS GA  0321      85                N/A     5/11   2/100/11
FRYING PAN BUOY  0350   79 82  120/ 14/ 16 1019.8F   3/10   3/130/10
BUOY 41025       0350   79 84  270/  2/  4 1020.6R   3/10   3/110/10
CAPE LOOKOUT NC  0300   78     190/  2/  3 1020.1F
BUOY 41002       0350   84 84  180/  8/ 10 1020.6F   4/ 8   3/160/ 8
BUOY 41010       0320   83 86  130/ 17/ 21 1018.1R
ST AUGUSTINE FL  0400   80 84  110/ 12/ 13 1016.9F


$$


USA.gov is the U.S. government's official web portal to all federal, state and local government web resources and services.